Retour au catalogue

FENGYUN 1C DEB

ActifSSO
NORAD 37439·DEBRIS·🇨🇳 China

Lancé May 10, 1999 depuis Taiyuan Satellite Launch Center

Loading…

Prochains Passages (prochaines 24 heures)

TLE

VieillissantSource: Space-Track

Époque: Sep 8, 2026, 12:12 UTC

1 37439U 99025EHH 26251.50853392  .00001926  00000-0  92158-3 0  9998
2 37439  99.0131 344.4028 0057960  54.6917  10.2283 14.19434125650871

Suivez FENGYUN 1C DEB en temps réel avec AllMySat

Download on the App Store